NOAA NWS Hourly Roundups by Site

Regional Weather Roundup for State College, PA

To Select Another Site Choose from List

Select Site:  

000
ASUS41 KCTP 221603
RWRCTP

REGIONAL WEATHER ROUNDUP
NATIONAL WEATHER SERVICE STATE COLLEGE PA
1200 PM EDT MON APR 22 2019

Note: "fair" indicates few or no clouds below 12,000 feet with no
significant weather and/or obstructions to visibility.

* = STATION THAT DOES NOT REPORT PRECIPITATION /E.G. RAIN...SNOW...ETC/
    THUNDER OR FOG.

PAZ002>004-007>009-013>016-020>023-029>032-221700-
WESTERN PENNSYLVANIA

CITY           SKY/WX    TMP DP  RH WIND       PRES   REMARKS
ERIE           FAIR      57  46  66 VRB5      30.26S
MEADVILLE      FAIR      55  44  66 VRB5      30.25S
FRANKLIN*      FAIR      54  43  66 CALM      30.25S
NEW CASTLE     PTSUNNY   57  44  62 VRB3      30.26S
BEAVER COUNTY  PTSUNNY   57  45  62 CALM      30.26R
BUTLER*        PTSUNNY   56  45  66 N5        30.25F
PITTSBURGH INT PTSUNNY   56  43  61 W5        30.25S
PITTSBURGH     CLOUDY    56  45  66 CALM      30.24F
INDIANA*       CLOUDY    52  45  76 CALM      30.28S
LATROBE        NOT AVBL
WASHINGTON CO* PTSUNNY   56  45  66 W6        30.28
$$

PAZ004>006-010>012-017>019-024>028-033>037-041-042-045-046-049>053-221700-
CENTRAL PENNSYLVANIA

CITY           SKY/WX    TMP DP  RH WIND       PRES   REMARKS
BRADFORD       CLOUDY    52  43  71 VRB3      30.23F
DUBOIS         FAIR      52  42  69 N3        30.22F
CLEARFIELD     FAIR      59  44  57 VRB3      30.21F
JOHNSTOWN      PTSUNNY   52  41  66 NW9       30.22S
ALTOONA        FAIR      60  45  57 N7        30.20F
STATE COLLEGE  MOSUNNY   55  45  67 NE6       30.20F
WILLIAMSPORT   CLOUDY    58  43  57 N9        30.18F
SELINSGROVE    PTSUNNY   58  46  64 NW9       30.18F
FT INDIANTOWN  PTSUNNY   62  46  55 N10G17    30.14F
CAPITAL CITY   PTSUNNY   59  44  57 NW13G23   30.15F
HARRISBURG     PTSUNNY   60  46  59 N13G23    30.15F
YORK           CLOUDY    59  48  67 N8        30.16S
$$

PAZ038>040-043-044-047-048-054-055-060>062-067>071-221700-
EASTERN PENNSYLVANIA

CITY           SKY/WX    TMP DP  RH WIND       PRES   REMARKS
SCRANTON       CLOUDY    55  45  68 N9        30.17S
MOUNT POCONO   CLOUDY    52  45  77 NW23G29   30.11F
ALLENTOWN        N/A     61  48  62 N15G23    30.09F
QUAKERTOWN*    CLOUDY    61  50  67 NW12G18   30.08F
READING        PTSUNNY   60  49  66 NW20      30.11F
LANCASTER      CLOUDY    61  48  62 N14       30.13S
COATESVILLE    PTSUNNY   59  48  67 NW12G20   30.11F
POTTSTOWN      CLOUDY    59  47  64 N9G20     30.10F
BLUE BELL      CLOUDY    61  48  63 NW10      30.08F
DOYLESTOWN     PTSUNNY   64  49  57 N13G23    30.05F
WILLOW GROVE   NOT AVBL
NORTH PHILA    CLOUDY    66  50  56 N14       30.06F
PHILADELPHIA   PTSUNNY   64  49  57 NW22      30.06F
$$


 

View Past Reports for State College, PA.

Products Courtesy of NOAA-NWS
NWS Information Parsing Script by Ken True at Saratoga Weather - Script by SE Lincoln Weather.